Regional Weather Roundup
Issued by NWS

Home | Current Version | Previous Version | Text Only | Print | Product List | Glossary On
Versions: 1 2 3 4 5 6 7 8 9 10 11 12 13 14 15 16 17 18 19 20 21 22 23 24 25 26 27 28 29 30 31 32 33 34 35 36 37 38 39 40 41 42 43 44 45 46 47 48 49 50
000
ASUS43 KMKX 172110
RWRWI

WISCONSIN REGIONAL WEATHER ROUNDUP
NATIONAL WEATHER SERVICE MILWAUKEE/SULLIVAN WI
300 PM CST SUN DEC 17 2017

NOTE: "FAIR" INDICATES FEW OR NO CLOUDS BELOW 12,000 FEET WITH NO
SIGNIFICANT WEATHER AND/OR OBSTRUCTIONS TO VISIBILITY.

WIZ001-002-006>008-014>016-023>028-172200-
NORTHWEST WISCONSIN

CITY           SKY/WX    TMP DP  RH WIND       PRES   REMARKS
SUPERIOR ARPT  CLOUDY    27  21  78 W5        30.01S WCI  22
ASHLAND        CLOUDY    29  23  78 S8        29.99F WCI  21
HAYWARD        CLOUDY    28  24  85 S5        29.98F WCI  23
SIREN          CLOUDY    26  25  94 CALM      29.99F FOG
CUMBERLAND     LGT SNOW  27  27 100 CALM      29.98S
RICE LAKE      LGT SNOW  28  27  94 CALM      30.01S
CHETEK         CLOUDY    28  26  91 S6        30.00S WCI  22
LADYSMITH      CLOUDY    29  26  87 S5        30.00S WCI  24
EAU CLAIRE     CLOUDY    28  25  88 CALM      29.99F FOG
MENOMONIE      CLOUDY    29  27  92 CALM      30.00F FOG
NEW RICHMOND   CLOUDY    28  24  86 CALM      30.00F FOG
OSCEOLA        CLOUDY    27  27 100 CALM      30.03F FOG
$$

WIZ003>005-009-010-017-018-172200-
NORTH CENTRAL WISCONSIN

CITY           SKY/WX    TMP DP  RH WIND       PRES   REMARKS
MANITOWISH WTR MIX PCPN  24  24 100 S6        29.95F WCI  17
ARBOR VITAE    LGT SNOW  27  25  95 SW3       29.96S
WOODRUFF       LGT SNOW  27  25  95 SW3       29.96S
RHINELANDER    CLOUDY    26  25  96 CALM      29.96F
EAGLE RIVER    LGT SNOW  25  25 100 S3        29.96F VSB 1
LAND O LAKES   LGT SNOW  26  25  96 CALM      29.97F
PHILLIPS       MIX PCPN  26  25  96 CALM      29.96F
TOMAHAWK       CLOUDY    26  24  91 CALM      29.98F
MEDFORD        CLOUDY    26  24  94 S3        29.98S FOG
MERRILL        CLOUDY    28  26  91 SE5       29.99F WCI  23
$$

WIZ029-030-035-036-043>047-172200-
CENTRAL WISCONSIN

CITY           SKY/WX    TMP DP  RH WIND       PRES   REMARKS
WAUSAU         CLOUDY    27  25  92 SE5       29.99R WCI  22
MOSINEE        CLOUDY    27  27 100 CALM      30.00F FOG
MARSHFIELD     CLOUDY    28  26  92 CALM      29.98S FOG
STEVENS POINT  LGT SNOW  27  27 100 CALM      30.00F
WAUPACA        CLOUDY    31  27  84 CALM      30.02R FOG
WAUTOMA        MIX PCPN  32  28  85 CALM        N/A  FOG
WISC RAPIDS    LGT SNOW  29  26  89 E3        30.01F FOG
CAMP DOUGLAS   CLOUDY    34  28  80 SE3       29.99F
$$

WIZ011>013-019>022-031-037>040-048>050-172200-
NORTHEAST WISCONSIN

CITY           SKY/WX    TMP DP  RH WIND       PRES   REMARKS
ANTIGO         CLOUDY    26  26 100 CALM      29.98S FOG
SHAWANO        CLOUDY    30  27  88 CALM      30.02F
OCONTO         CLOUDY    31  28  87 CALM      30.03S
STURGEON BAY   CLOUDY    31  28  89 VRB3      30.03R
GREEN BAY      CLOUDY    31  26  82 SE3       30.02S
MANITOWOC      CLOUDY    31  29  92 S3        30.02F
APPLETON       CLOUDY    30  27  86 SE5       30.00S FOG     WCI  25
CLINTONVILLE   NOT AVBL
OSHKOSH        CLOUDY    31  28  89 CALM      30.01R FOG
$$

WIZ032>034-041-042-053>061-172200-
SOUTHWEST WISCONSIN

CITY           SKY/WX    TMP DP  RH WIND       PRES   REMARKS
LA CROSSE      LGT SNOW  32  28  85 CALM      29.98F FOG
SPARTA         LGT SNOW  31  28  90 CALM      29.99F
VIROQUA        CLOUDY    30  30 100 CALM      29.95F
BOSCOBEL       CLOUDY    35  29  78 CALM      29.97F
PRAIRIE DU CHI CLOUDY    35  29  79 CALM      29.96F HAZE
PLATTEVILLE    CLOUDY    36  32  86 E6        29.96F WCI  31
$$

WIZ056-057-062-063-064-067-068-172200-
SOUTH CENTRAL WISCONSIN

CITY           SKY/WX    TMP DP  RH WIND       PRES   REMARKS
REEDSBURG      CLOUDY    32  30  92 CALM      29.97F
BARABOO/DELLS  CLOUDY    32  29  88 CALM      29.97F FOG
LONE ROCK      CLOUDY    35  30  82 NE3       29.96F HAZE
MINERAL POINT  CLOUDY    36  34  93 E3        29.94F
MADISON        CLOUDY    34  29  82 E5        29.98F HAZE    WCI  30
MIDDLETON      CLOUDY    35  31  86 NE5       29.96F WCI  31
WATERTOWN      CLOUDY    32  32 100 E5        29.96F WCI  27
MONROE         CLOUDY    34  32  93 NE5       29.95F WCI  30
JANESVILLE     CLOUDY    37  32  81 NE6       29.95F FOG     WCI  33
$$

WIZ051-052-058>065-066-070>072-172200-
SOUTHEAST WISCONSIN

CITY           SKY/WX    TMP DP  RH WIND       PRES   REMARKS
MILWAUKEE      CLOUDY    36  32  85 NE3       29.99F FOG
WAUKESHA       CLOUDY    30  28  93 E5        30.00S FOG     WCI  25
MILWAUKEE/TIMM CLOUDY    32  28  86 CALM      30.01S FOG
RACINE         CLOUDY    36  32  85 N3        30.00S FOG
BURLINGTON     CLOUDY    46  46 100 NE5       29.97F FOG
KENOSHA        CLOUDY    37  31  78 N5        29.98S HAZE    WCI  33
FOND DU LAC    CLOUDY    31  27  85 CALM      30.00S
SHEBOYGAN      CLOUDY    31  30  96 CALM      30.01S FOG
WEST BEND      CLOUDY    32  32 100 E5        29.99S FOG     WCI  27
JUNEAU         CLOUDY    31  28  92 CALM      29.99F FOG
$$

LSZ147-162-172200-
LAKE SUPERIOR

STATION/POSITION TIME  TEMP    WIND        PRES    WAVE
                       AIR SEA DIR/SP/G            HT/PER
                 (UTC) (F)     (DEG/KT/KT) (MB)    (FT/S)
DEVILS ISLAND    2100   28     220/  5/  7 1016.3F
SAXON HARBOR     2040   30                 1015.2F
$$

LMZ867-665-643>646-172200-
LAKE MICHIGAN

STATION/POSITION TIME  TEMP    WIND        PRES    WAVE
                       AIR SEA DIR/SP/G            HT/PER
                 (UTC) (F)     (DEG/KT/KT) (MB)    (FT/S)
NORTHPORT PIER   2040   32      CALM  /  4 1016.9F
KEWAUNEE LAKESHO 2042   31     180/  5/  9 1015.8F
SHEBOYGAN LAKESH 2100   32     170/  6/  7 1017.1R
PORT WASHINGTON  2030   34     140/  4/  7 1016.9F
MILWAUKEE LAKESH 2050   34      50/  3/  3   N/A
KENOSHA   LAKESH 2100   35      10/  5/  5 1015.6
$$

TC  - TEMPERATURE IN CELSIUS
VSB - VISIBILITY IN STATUTE MILES
WCI - WIND CHILL INDEX
HX  - HEAT INDEX





USA.gov is the U.S. government's official web portal to all federal, state and local government web resources and services.